[[{"header":{"parameterUnit":"m.s-1","parameterCategory":1,"la1":30.2992,"la2":30.254,"lo1":-89.0895,"lo2":-89.0443,"dy":0.0025,"dx":0.0025,"nx":19,"ny":19,"refTime":"2026-04-10T03:00:00:Z","depth":0,"parameterNumber":2,"parameterNumberName":"U-component_of_WINDS"},"data":[0,0,0,-4.2991,-4.2996,-4.3195,-4.3196,-4.3505,-4.3508,0,0,0,0,0,0,0,0,0,0,0,-4.2962,-4.2965,-4.299,-4.2996,-4.3195,-4.3196,-4.3504,-4.3508,0,0,0,0,0,0,0,0,0,0,0,-4.2961,-4.2964,-4.2968,-4.2997,-4.3195,-4.3196,-4.3503,-4.3334,0,0,0,0,0,0,0,0,0,0,-4.3132,-4.3135,-4.2964,-4.2969,-4.2998,-4.3195,-4.3196,-4.3325,-4.3345,-4.3437,0,-4.3524,0,-4.3521,-4.3532,-4.3533,0,0,0,-4.2974,-4.3119,-4.3144,-4.2969,-4.3001,-4.3195,-4.3099,-4.3336,-4.3358,-4.3463,-4.3528,-4.3538,-4.3526,-4.3534,-4.3536,-4.4135,-4.4138,0,0,-4.2963,-4.3015,-4.3129,-4.316,-4.313,-4.3093,-4.3106,-4.3348,-4.3424,-4.3529,-4.3545,-4.3531,-4.3536,-4.3539,-4.4131,-4.4136,0,0,0,-4.2947,-4.3009,-4.3027,-4.3149,-4.3181,-4.3099,-4.3114,-4.3413,-4.3414,-4.3548,-4.3535,-4.3539,-4.3543,-4.4127,-4.4133,-4.4374,0,0,0,-4.2939,-4.2998,-4.3023,-4.3057,-4.3177,-4.3299,-4.3174,-4.3398,-4.3423,-4.3534,-4.3539,-4.3546,-4.4122,-4.413,-4.4358,-4.4482,0,0,0,-4.2939,-4.2998,-4.3037,-4.306,-4.3147,-4.3293,-4.3308,-4.3402,-4.3417,-4.3533,-4.3547,-4.4119,-4.4128,-4.4344,-4.4458,-4.4657,0,0,0,-4.2955,-4.3248,-4.3042,-4.3365,-4.3146,-4.3439,-4.3306,-4.3523,-4.3651,-4.354,-4.4123,-4.4132,-4.434,-4.4444,-4.4643,-4.4838,-4.4922,0,0,-4.3355,-4.3298,-4.3484,-4.3305,-4.3649,-4.3405,-4.3785,-4.3854,-4.3818,-4.4032,-4.4046,-4.4363,-4.4456,-4.4654,-4.537,-4.5438,0,0,0,-4.3629,-4.3764,-4.3843,-4.3967,-4.4025,-4.4086,-4.409,-4.4116,-4.4295,-4.3937,-4.4485,-4.4539,-4.4653,-4.4744,-4.4802,-4.4898,-4.4175,-4.4174,-4.4173,-4.4273,-4.4209,-4.4514,-4.4475,-4.4597,-4.4598,-4.4692,-4.4727,-4.4628,-4.4758,-4.4824,-4.5265,-4.5374,-4.5417,-4.5518,-4.4916,-4.4917,-4.4918,-4.4919,-4.4857,-4.504,-4.4899,-4.5145,-4.5077,-4.5284,-4.5297,-4.522,-4.5405,-4.5211,-4.5308,-4.5107,-4.5493,-4.5579,-4.4936,-4.4933,-4.4931,-4.493,-4.4928,-4.5276,-4.5353,-4.5377,-4.5549,-4.569,-4.5639,-4.5823,-4.5753,-4.5689,-4.5785,-4.5849,-4.5845,-4.5837,-4.5819,-4.5821,-4.5822,-4.5824,-4.5825,-4.5826,-4.5704,-4.5723,-4.5885,-4.5971,-4.6042,-4.6126,-4.6129,-4.6198,-4.6257,-4.6192,-4.6192,-4.6085,-4.554,-4.5408,-4.585,-4.5845,-4.5842,-4.584,-4.5838,-4.633,-4.6176,-4.6428,-4.6499,-4.6595,-4.6741,-4.6647,-4.6794,-4.684,-4.6934,-4.6803,-4.641,-4.6349,-4.6302,-4.6193,-4.6812,-4.6812,-4.6812,-4.6812,-4.6688,-4.6647,-4.689,-4.7008,-4.7116,-4.7057,-4.7347,-4.7353,-4.7336,-4.7361,-4.726,-4.7107,-4.7062,-4.7028,-4.6966,-4.6863,-4.7639,-4.764,-4.764,-4.7071,-4.7038,-4.7298,-4.7276,-4.7345,-4.7408,-4.7679,-4.7824,-4.7772,-4.7672,-4.7381,-4.7346,-4.7098,-4.7019,-4.692,-4.6825,-4.6635,0,0]},{"header":{"parameterUnit":"m.s-1","parameterCategory":1,"la1":30.2992,"la2":30.254,"lo1":-89.0895,"lo2":-89.0443,"dy":0.0025,"dx":0.0025,"nx":19,"ny":19,"refTime":"2026-04-10T03:00:00:Z","depth":0,"parameterNumber":3,"parameterNumberName":"V-component_of_WINDS"},"data":[0,0,0,-1.1504,-1.1501,-1.1389,-1.1389,-1.1244,-1.1243,0,0,0,0,0,0,0,0,0,0,0,-1.154,-1.1539,-1.1504,-1.1501,-1.1389,-1.1389,-1.1244,-1.1243,0,0,0,0,0,0,0,0,0,0,0,-1.1541,-1.154,-1.1539,-1.1501,-1.139,-1.1389,-1.1245,-1.1329,0,0,0,0,0,0,0,0,0,0,-1.1437,-1.1475,-1.154,-1.1539,-1.15,-1.139,-1.1389,-1.1333,-1.1323,-1.1296,0,-1.1275,0,-1.1257,-1.1234,-1.1233,0,0,0,-1.1498,-1.1483,-1.145,-1.1538,-1.1499,-1.139,-1.1439,-1.1328,-1.1317,-1.1283,-1.1273,-1.1268,-1.1255,-1.1233,-1.1232,-1.109,-1.109,0,0,-1.1504,-1.1521,-1.1458,-1.1444,-1.1466,-1.1442,-1.1435,-1.1321,-1.131,-1.1273,-1.1264,-1.1252,-1.1232,-1.1231,-1.1091,-1.109,0,0,0,-1.1524,-1.1525,-1.1495,-1.145,-1.143,-1.1439,-1.1431,-1.1315,-1.1304,-1.1263,-1.1251,-1.1231,-1.1229,-1.1091,-1.109,-1.1082,0,0,0,-1.1527,-1.1537,-1.1498,-1.1507,-1.1432,-1.1372,-1.1428,-1.1312,-1.1298,-1.1251,-1.1231,-1.1228,-1.1092,-1.1091,-1.1083,-1.1074,0,0,0,-1.1546,-1.1539,-1.1525,-1.1509,-1.1462,-1.1374,-1.1356,-1.1309,-1.1291,-1.1233,-1.1227,-1.1092,-1.1091,-1.1085,-1.1076,-1.104,0,0,0,-1.157,-1.1519,-1.1525,-1.1462,-1.1463,-1.1371,-1.1356,-1.1286,-1.1236,-1.123,-1.1092,-1.109,-1.1085,-1.1078,-1.1042,-1.1012,-1.1002,0,0,-1.1515,-1.1513,-1.1475,-1.1477,-1.1389,-1.1387,-1.1295,-1.1231,-1.1209,-1.113,-1.1126,-1.1083,-1.1077,-1.104,-1.0943,-1.0935,0,0,0,-1.1463,-1.1435,-1.1408,-1.1362,-1.1314,-1.1269,-1.1218,-1.1194,-1.1126,-1.1173,-1.1061,-1.1056,-1.1034,-1.1019,-1.1012,-1.099,-1.1085,-1.1085,-1.1085,-1.1407,-1.1383,-1.1316,-1.1278,-1.1233,-1.118,-1.1139,-1.1097,-1.1084,-1.1058,-1.1034,-1.0978,-1.0961,-1.0955,-1.0933,-1.1018,-1.1018,-1.1018,-1.1017,-1.1322,-1.1277,-1.1262,-1.1193,-1.1165,-1.1104,-1.105,-1.1042,-1.0979,-1.0995,-1.0974,-1.0991,-1.0948,-1.0927,-1.1017,-1.1017,-1.1017,-1.1017,-1.1017,-1.1281,-1.1255,-1.1229,-1.1158,-1.1104,-1.1066,-1.1006,-1.0983,-1.096,-1.094,-1.0909,-1.0909,-1.0904,-1.0927,-1.0927,-1.0927,-1.0927,-1.0927,-1.0927,-1.1249,-1.1219,-1.1173,-1.1116,-1.1082,-1.1033,-1.0978,-1.0942,-1.0896,-1.0883,-1.0883,-1.087,-1.095,-1.0969,-1.0923,-1.0924,-1.0924,-1.0925,-1.0925,-1.1168,-1.1182,-1.1112,-1.1077,-1.1006,-1.0953,-1.0925,-1.0853,-1.082,-1.079,-1.0782,-1.0845,-1.0841,-1.0846,-1.0861,-1.079,-1.079,-1.079,-1.079,-1.1132,-1.1128,-1.1049,-1.0995,-1.0939,-1.0906,-1.0821,-1.0776,-1.0731,-1.0707,-1.0714,-1.0733,-1.074,-1.0731,-1.0738,-1.0752,-1.0655,-1.0655,-1.0655,-1.1079,-1.1068,-1.1003,-1.0962,-1.0904,-1.0853,-1.0772,-1.0706,-1.0658,-1.0649,-1.0688,-1.0693,-1.0724,-1.0736,-1.0726,-1.0739,-1.0763,0,0]}]]